FW7721 Weather Reports


time (UTC)temp
F
wind
direction
speed
knots
gust
knots
rain 1hr
in
rain 24hr
in
rain mn
in
humidity
%
barometer
mb
20260504081524 36 246 10.4 26.1 0.01 0.86 0.05 96 985.8
20260504070105 36 238 12.2 20.9 0.00 0.84 0.03 97 982.5
20260504044537 40 227 9.6 17.4 0.01 0.83 0.02 99 978.0
20260504043025 40 226 7.8 18.2 0.00 0.82 0.01 99 977.4
20260504041521 40 219 7.8 16.5 0.00 0.82 0.01 99 976.9
20260504040022 39 234 8.7 14.8 0.01 0.82 0.01 99 976.4
20260504034514 39 233 4.3 10.4 0.01 0.82 0.01 99 975.7
20260504033010 39 263 4.3 11.3 0.02 0.82 0.01 99 974.9
20260504031507 39 255 2.6 7.8 0.03 0.82 0.01 99 974.4
20260504030002 39 302 1.7 5.2 0.02 0.81 0.81 99 973.8
20260504024505 39 346 1.7 4.3 0.03 0.81 0.81 99 973.5
20260504023100 39 58 2.6 9.6 0.02 0.80 0.80 99 973.8
20260504021556 39 95 4.3 13.0 0.02 0.79 0.79 99 974.3
20260504020051 39 62 7.8 14.8 0.02 0.79 0.79 99 975.1
20260504014600 39 53 5.2 13.0 0.01 0.78 0.78 99 976.1
20260504013050 40 59 7.0 15.6 0.01 0.78 0.78 99 977.1
20260504011543 40 59 5.2 16.5 0.00 0.77 0.77 99 977.9
20260504010038 41 91 6.1 16.5 0.01 0.77 0.77 100 978.6
20260504004535 42 76 3.5 10.4 0.03 0.77 0.77 100 979.6
20260504003030 41 78 7.0 15.6 0.05 0.77 0.77 100 980.2
20260504001526 39 92 11.3 21.7 0.05 0.76 0.76 100 980.7
20260504000023 39 41 9.6 17.4 0.07 0.76 0.76 99 981.2
20260503234530 39 71 13.0 25.2 0.07 0.74 0.74 99 982.4
20260503233016 39 63 12.2 30.4 0.06 0.72 0.72 99 983.3
20260503231514 38 36 15.6 26.1 0.09 0.71 0.71 99 984.1
20260503230010 39 55 14.8 25.2 0.13 0.69 0.69 99 985.0
20260503224512 38 59 13.9 29.5 0.14 0.67 0.67 99 986.0
20260503223006 38 48 11.3 25.2 0.15 0.65 0.65 99 987.0
20260503221502 38 51 16.5 26.9 0.16 0.61 0.61 99 987.8
20260503220104 37 49 16.5 30.4 0.14 0.56 0.56 99 988.5
20260503214556 37 57 16.5 28.7 0.16 0.53 0.53 99 989.5
20260503213101 37 64 18.2 30.4 0.23 0.50 0.50 99 990.8
20260503211548 36 59 15.6 26.1 0.22 0.45 0.45 99 991.9
20260503210047 36 69 9.6 26.9 0.21 0.42 0.42 99 993.2
20260503204542 36 53 11.3 22.6 0.19 0.36 0.36 99 994.0
20260503203040 36 78 14.8 22.6 0.14 0.27 0.27 99 993.9
20260503201535 36 80 13.9 22.6 0.13 0.23 0.23 99 994.7
20260503200031 36 65 12.2 23.5 0.13 0.21 0.21 98 995.6
20260503194527 37 71 7.8 15.6 0.12 0.16 0.16 98 996.7
20260503193029 37 65 13.0 23.5 0.12 0.13 0.13 98 996.8
20260503191522 38 59 10.4 20.0 0.10 0.10 0.10 97 997.8
20260503190021 38 53 11.3 19.1 0.07 0.07 0.07 97 998.8
20260503184518 38 84 10.4 20.0 0.03 0.03 0.03 97 999.1
20260503183017 38 44 9.6 18.2 0.00 0.00 0.00 96 999.9
20260503181512 38 50 7.0 15.6 0.00 0.00 0.00 96 1000.6
20260503180016 39 94 7.8 14.8 0.00 0.00 0.00 95 1001.6
20260503174506 39 115 6.1 16.5 0.00 0.00 0.00 95 1002.6
20260503173005 40 130 6.1 9.6 0.00 0.00 0.00 95 1003.5
20260503171501 39 75 4.3 12.2 0.00 0.00 0.00 96 1003.6